Zurück zum Katalog

ONEWEB-0027

AktivKommunikationPO
NORAD 45432·PAYLOAD·🇬🇧 United Kingdom

Gestartet Mar 21, 2020 von Baikonur Cosmodrome

Loading…

Nächste Überflüge (nächste 24 Stunden)

TLE

AktuellSource: CelesTrak SupGP

Epoche: Sep 14, 2026, 20:59 UTC

1 45432C 20020J   26257.87479583 -.00000943  00000+0 -24316-2 0  2577
2 45432  87.9205 348.0558 0001491 103.4107 299.8998 13.17648492    15

Verfolge ONEWEB-0027 in Echtzeit mit AllMySat

Download on the App Store